SVA1422 OEJN-OEMA

Flight info

Callsign SVA1422
Flight time 0h 40m
Altitude 33000
Route DATAP2W/34C DATAP A424 RULEB/N0449F320 A424 DEGVU
Aircraft A21N/M-SDE2E3FGHIRWY/L

Departure

Time 2026-04-30 20:35
Airport King Abdulaziz International Airport (OEJN)

Arrival

Time 2026-04-30 21:16
Airport Prince Mohammad Bin Abdulaziz Airport (OEMA)
Time Latitude Longitude Altitude Speed Heading
2026-04-30 20:09 21.66604 39.17276 54 ft 0 kts 254°
2026-04-30 20:24 21.66609 39.17294 51 ft 4 kts 252°
2026-04-30 20:25 21.66629 39.17348 50 ft 4 kts 240°
2026-04-30 20:25 21.66645 39.17371 50 ft 4 kts 224°
2026-04-30 20:26 21.66659 39.17383 51 ft 0 kts 203°
2026-04-30 20:30 21.66623 39.17387 55 ft 6 kts 158°
2026-04-30 20:31 21.66636 39.17609 57 ft 12 kts 69°
2026-04-30 20:32 21.66689 39.17761 55 ft 1 kts 70°
2026-04-30 20:32 21.66654 39.17803 62 ft 7 kts 138°
2026-04-30 20:33 21.66621 39.17860 60 ft 11 kts 100°
2026-04-30 20:33 21.66637 39.17952 63 ft 7 kts 70°
2026-04-30 20:33 21.66671 39.18010 59 ft 11 kts 32°
2026-04-30 20:34 21.66744 39.18009 61 ft 0 kts 340°
2026-04-30 20:34 21.66745 39.18009 61 ft 3 kts 340°
2026-04-30 20:35 21.67003 39.17909 56 ft 79 kts 340°
2026-04-30 20:35 21.67739 39.17617 55 ft 144 kts 340°
2026-04-30 20:35 21.69975 39.16764 969 ft 178 kts 342°
2026-04-30 20:36 21.71162 39.16345 1753 ft 178 kts 345°
2026-04-30 20:36 21.72405 39.16148 2409 ft 186 kts 354°
2026-04-30 20:36 21.75207 39.16072 3599 ft 223 kts 15°
2026-04-30 20:37 21.76586 39.16989 4157 ft 250 kts 45°
2026-04-30 20:37 21.77683 39.18540 4781 ft 269 kts 50°
2026-04-30 20:37 21.79188 39.19762 5484 ft 277 kts 21°
2026-04-30 20:37 21.81071 39.20409 6381 ft 283 kts 13°
2026-04-30 20:38 21.82981 39.20975 7232 ft 287 kts 14°
2026-04-30 20:38 21.84912 39.21567 8148 ft 291 kts 14°
2026-04-30 20:38 21.86867 39.22190 9070 ft 295 kts 15°
2026-04-30 20:39 21.90888 39.23505 10534 ft 316 kts 15°
2026-04-30 20:39 21.93028 39.24215 10976 ft 335 kts 15°
2026-04-30 20:39 21.95342 39.24987 11457 ft 352 kts 15°
2026-04-30 20:40 22.00192 39.26615 12663 ft 374 kts 15°
2026-04-30 20:40 22.02649 39.27439 13404 ft 379 kts 14°
2026-04-30 20:40 22.05185 39.28287 14109 ft 384 kts 14°
2026-04-30 20:41 22.10344 39.29997 15506 ft 391 kts 14°
2026-04-30 20:41 22.12950 39.30866 16205 ft 395 kts 14°
2026-04-30 20:41 22.15586 39.31749 16892 ft 399 kts 14°
2026-04-30 20:41 22.18251 39.32643 17576 ft 403 kts 14°
2026-04-30 20:42 22.20934 39.33544 18248 ft 406 kts 14°
2026-04-30 20:42 22.23645 39.34456 18859 ft 409 kts 14°
2026-04-30 20:42 22.29118 39.36288 20137 ft 414 kts 13°
2026-04-30 20:43 22.31875 39.37213 20795 ft 416 kts 13°
2026-04-30 20:43 22.34651 39.38144 21473 ft 419 kts 13°
2026-04-30 20:43 22.37437 39.39081 22215 ft 419 kts 13°
2026-04-30 20:44 22.42940 39.40938 23964 ft 412 kts 12°
2026-04-30 20:44 22.45677 39.41859 24508 ft 413 kts 12°
2026-04-30 20:44 22.51164 39.43705 24892 ft 412 kts 12°
2026-04-30 20:45 22.56556 39.45528 24945 ft 408 kts 12°
2026-04-30 20:45 22.59260 39.46442 24952 ft 408 kts 11°
2026-04-30 20:45 22.61972 39.47354 24950 ft 409 kts 11°
2026-04-30 20:46 22.70069 39.50288 24958 ft 410 kts 14°
2026-04-30 20:46 22.72762 39.51332 24962 ft 410 kts 13°
2026-04-30 20:47 22.78133 39.53416 24970 ft 411 kts 13°
2026-04-30 20:47 22.80826 39.54463 24975 ft 410 kts 13°
2026-04-30 20:48 22.86205 39.56550 24975 ft 411 kts 13°
2026-04-30 20:48 22.88893 39.57592 24981 ft 411 kts 13°
2026-04-30 20:48 22.91582 39.58629 24983 ft 411 kts 13°
2026-04-30 20:48 22.94274 39.59676 24983 ft 411 kts 13°
2026-04-30 20:49 22.96973 39.60727 24975 ft 412 kts 13°
2026-04-30 20:49 22.99666 39.61772 24973 ft 411 kts 13°
2026-04-30 20:49 23.02397 39.62551 24974 ft 402 kts
2026-04-30 20:50 23.07920 39.62928 24986 ft 397 kts 355°
2026-04-30 20:50 23.10636 39.63025 24978 ft 397 kts 355°
2026-04-30 20:50 23.13427 39.63145 24981 ft 397 kts 356°
2026-04-30 20:50 23.16153 39.63288 24995 ft 397 kts 356°
2026-04-30 20:51 23.18913 39.63435 24989 ft 397 kts 356°
2026-04-30 20:51 23.24466 39.63725 24994 ft 397 kts 356°
2026-04-30 20:51 23.27194 39.63861 24983 ft 398 kts 356°
2026-04-30 20:52 23.29994 39.64000 24995 ft 397 kts 356°
2026-04-30 20:52 23.32756 39.64140 24995 ft 397 kts 356°
2026-04-30 20:52 23.38242 39.64428 24997 ft 397 kts 356°
2026-04-30 20:53 23.41042 39.64574 25000 ft 400 kts 356°
2026-04-30 20:53 23.43888 39.64713 25013 ft 419 kts 356°
2026-04-30 20:53 23.46829 39.64860 25028 ft 437 kts 356°
2026-04-30 20:54 23.52941 39.65189 25012 ft 440 kts 356°
2026-04-30 20:54 23.56040 39.65354 25010 ft 441 kts 356°
2026-04-30 20:54 23.59068 39.65513 25005 ft 441 kts 356°
2026-04-30 20:55 23.65238 39.65839 25005 ft 441 kts 356°
2026-04-30 20:55 23.68207 39.65998 25006 ft 440 kts 356°
2026-04-30 20:55 23.71258 39.66308 24983 ft 441 kts
2026-04-30 20:56 23.76853 39.68495 24985 ft 415 kts 15°
2026-04-30 20:56 23.79520 39.69680 24993 ft 413 kts 15°
2026-04-30 20:56 23.84797 39.71972 24223 ft 407 kts 14°
2026-04-30 20:57 23.87464 39.73113 23620 ft 406 kts 15°
2026-04-30 20:57 23.90049 39.74223 23028 ft 403 kts 15°
2026-04-30 20:57 23.92650 39.75344 22433 ft 400 kts 15°
2026-04-30 20:58 23.97787 39.77554 21282 ft 394 kts 16°
2026-04-30 20:58 24.00332 39.78648 20723 ft 392 kts 16°
2026-04-30 20:58 24.02865 39.79736 20176 ft 389 kts 16°
2026-04-30 20:58 24.05377 39.80818 19642 ft 387 kts 17°
2026-04-30 20:59 24.10354 39.82966 18612 ft 382 kts 17°
2026-04-30 20:59 24.12822 39.84029 18078 ft 380 kts 17°
2026-04-30 21:00 24.17762 39.86161 16804 ft 379 kts 18°
2026-04-30 21:00 24.22564 39.88213 15691 ft 374 kts 15°
2026-04-30 21:01 24.27578 39.88318 14637 ft 355 kts 342°
2026-04-30 21:01 24.29949 39.87622 14142 ft 352 kts 342°
2026-04-30 21:01 24.34699 39.86400 13071 ft 349 kts 345°
2026-04-30 21:02 24.37082 39.85867 12532 ft 348 kts 346°
2026-04-30 21:02 24.39453 39.85363 12001 ft 347 kts 347°
2026-04-30 21:02 24.41814 39.84867 11478 ft 346 kts 347°
2026-04-30 21:02 24.44172 39.84370 10965 ft 344 kts 348°
2026-04-30 21:03 24.46520 39.83876 10464 ft 344 kts 348°
2026-04-30 21:03 24.48868 39.83377 9963 ft 344 kts 348°
2026-04-30 21:03 24.51219 39.82870 9590 ft 335 kts 348°
2026-04-30 21:03 24.52718 39.82547 9387 ft 326 kts 348°
2026-04-30 21:04 24.54903 39.82080 9167 ft 313 kts 349°
2026-04-30 21:04 24.57019 39.81644 8932 ft 300 kts 349°
2026-04-30 21:04 24.61039 39.80816 8101 ft 292 kts 349°
2026-04-30 21:05 24.63032 39.80398 7658 ft 292 kts 348°
2026-04-30 21:05 24.64982 39.79986 7501 ft 289 kts 348°
2026-04-30 21:05 24.66956 39.79567 7489 ft 289 kts 348°
2026-04-30 21:05 24.68927 39.79149 7450 ft 284 kts 348°
2026-04-30 21:06 24.70848 39.78740 7138 ft 280 kts 348°
2026-04-30 21:06 24.72745 39.78335 6905 ft 274 kts 348°
2026-04-30 21:06 24.74577 39.77946 6761 ft 263 kts 348°
2026-04-30 21:06 24.76315 39.77576 6659 ft 252 kts 348°
2026-04-30 21:07 24.78047 39.77210 6652 ft 249 kts 348°
2026-04-30 21:07 24.79748 39.76848 6667 ft 249 kts 348°
2026-04-30 21:07 24.81450 39.76487 6684 ft 249 kts 348°
2026-04-30 21:07 24.83128 39.76132 6699 ft 249 kts 348°
2026-04-30 21:08 24.84778 39.75541 6684 ft 247 kts 327°
2026-04-30 21:08 24.85990 39.74269 6688 ft 246 kts 302°
2026-04-30 21:08 24.86580 39.72550 6551 ft 241 kts 277°
2026-04-30 21:08 24.86440 39.70711 6454 ft 244 kts 252°
2026-04-30 21:09 24.85600 39.69072 6457 ft 245 kts 230°
2026-04-30 21:09 24.84259 39.67919 6474 ft 247 kts 210°
2026-04-30 21:09 24.82742 39.67114 6452 ft 241 kts 205°
2026-04-30 21:09 24.81240 39.66413 6343 ft 228 kts 204°
2026-04-30 21:10 24.79818 39.65767 6213 ft 216 kts 204°
2026-04-30 21:10 24.78404 39.65391 6112 ft 215 kts 177°
2026-04-30 21:10 24.76945 39.65712 5913 ft 210 kts 163°
2026-04-30 21:10 24.75616 39.66210 5724 ft 194 kts 162°
2026-04-30 21:11 24.74360 39.66639 5447 ft 185 kts 166°
2026-04-30 21:11 24.73143 39.66979 5183 ft 175 kts 168°
2026-04-30 21:11 24.71987 39.67260 4943 ft 164 kts 169°
2026-04-30 21:11 24.70920 39.67495 4757 ft 151 kts 170°
2026-04-30 21:12 24.69892 39.67716 4556 ft 152 kts 170°
2026-04-30 21:12 24.68854 39.67938 4346 ft 151 kts 171°
2026-04-30 21:12 24.67814 39.68161 4159 ft 150 kts 171°
2026-04-30 21:12 24.66790 39.68379 3971 ft 149 kts 171°
2026-04-30 21:13 24.65797 39.68592 3781 ft 146 kts 172°
2026-04-30 21:13 24.64790 39.68807 3593 ft 145 kts 171°
2026-04-30 21:13 24.63796 39.69019 3406 ft 144 kts 172°
2026-04-30 21:13 24.62821 39.69227 3223 ft 143 kts 171°
2026-04-30 21:14 24.61842 39.69439 3080 ft 142 kts 171°
2026-04-30 21:14 24.60887 39.69648 2922 ft 138 kts 170°
2026-04-30 21:14 24.59955 39.69855 2706 ft 136 kts 169°
2026-04-30 21:14 24.59035 39.70053 2483 ft 133 kts 172°
2026-04-30 21:15 24.58121 39.70237 2295 ft 133 kts 171°
2026-04-30 21:15 24.57231 39.70426 2145 ft 129 kts 171°
2026-04-30 21:15 24.56504 39.70575 2130 ft 79 kts 169°
2026-04-30 21:15 24.56110 39.70659 2123 ft 50 kts 167°
2026-04-30 21:16 24.55767 39.70730 2113 ft 50 kts 169°
2026-04-30 21:16 24.55464 39.70805 2107 ft 38 kts 162°
2026-04-30 21:16 24.55292 39.70909 2104 ft 20 kts 153°
2026-04-30 21:16 24.55216 39.71006 2104 ft 12 kts 88°
2026-04-30 21:17 24.55233 39.71106 2105 ft 15 kts 77°
2026-04-30 21:17 24.55245 39.71160 2105 ft 1 kts 83°
2026-04-30 21:17 24.55247 39.71179 2105 ft 4 kts 82°
2026-04-30 21:17 24.55259 39.71200 2106 ft 0 kts 42°
2026-04-30 21:18 24.55271 39.71208 2106 ft 4 kts 21°
2026-04-30 21:18 24.55319 39.71213 2107 ft 10 kts 355°
2026-04-30 21:19 24.55376 39.71226 2108 ft 8 kts 59°
2026-04-30 21:19 24.55384 39.71266 2108 ft 6 kts 81°
2026-04-30 21:19 24.55389 39.71294 2109 ft 1 kts 80°
2026-04-30 21:19 24.55391 39.71307 2109 ft 0 kts 81°
2026-04-30 21:20 24.55392 39.71308 2109 ft 0 kts 80°